This demonstration page uses our WeatherBlox Daily Observations layout. Learn more.

Left ArrowRight Arrow

39.92423, -83.80882

Hourly Observations for January 24, 2017

Temp ( °F °C ) Dew Point ( °F °C ) Humidity (%) Winds ( mph kmh ) Pressure ( in mb ) Visibility ( mi km ) Precip ( " mm )
12:10 am 00:10 Cloudy with Light Rain 39 4 39 4 100 100 NNW 8 13 29.71 1006 2.5 4.02335 0.01 0.254
12:18 am 00:18 Cloudy with Light Rain 39 4 39 4 100 100 NNW 10 17 29.71 1006 3 4.82802 0.01 0.254
12:56 am 00:56 Cloudy with Light Rain 40 4.4 39 3.9 97 97 NW 9 15 29.69 1006 3 4.82802 0.01 0.254
1:56 am 01:56 Cloudy with Light Rain 40 4.4 39 3.9 97 97 NW 7 11 29.7 1006 8 12.87472 0 0.0254
2:23 am 02:23 Cloudy with Light Rain 39 4 39 4 100 100 NNW 7 11 29.71 1006 9 14.48406 0 0.0254
2:56 am 02:56 Cloudy 41 5 39 3.9 93 93 NNW 6 9 29.71 1006 10 16.0934 0 0.0254
3:27 am 03:27 Cloudy 41 5 39 4 93 93 NW 7 11 29.74 1007 7 11.26538 0 0
3:56 am 03:56 Cloudy with Mist and Fog 41 5 40 4.4 96 96 WNW 8 13 29.73 1007 2 3.21868 0 0
3:59 am 03:59 Cloudy with Mist and Fog 41 5 39 4 93 93 WNW 7 11 29.74 1007 1.75 2.816345 0 0
4:31 am 04:31 Cloudy with Light Rain 41 5 41 5 100 100 WNW 12 19 29.74 1007 1 1.60934 0 0.0254
4:38 am 04:38 Cloudy with Mist and Fog 41 5 41 5 100 100 WNW 14 22 29.74 1007 2 3.21868 0 0.0254
4:56 am 04:56 Cloudy with Light Rain 41 5 41 5 100 100 NW 15 24 29.73 1007 2.5 4.02335 0 0.0254
5:23 am 05:23 Cloudy with Mist and Fog 41 5 41 5 100 100 NW 12 19 29.74 1007 4 6.43736 0 0.0254
5:44 am 05:44 Cloudy with Mist and Fog 41 5 41 5 100 100 WNW 12 19 29.77 1008 1.75 2.816345 0 0.0254
5:54 am 05:54 Cloudy with Light Rain 41 5 41 5 100 100 WNW 12 19 29.74 1007 1 1.60934 0 0.0254
5:56 am 05:56 Cloudy with Light Rain 41 5 41 5 100 100 WNW 14 22 29.74 1007 1 1.60934 0 0.0254
6:05 am 06:05 Cloudy with Light Rain 41 5 39 4 93 93 WNW 12 19 29.77 1008 1.5 2.41401 0 0.0254
6:20 am 06:20 Cloudy with Light Rain 41 5 39 4 93 93 WNW 14 22 29.77 1008 1 1.60934 0 0.0254
6:34 am 06:34 Cloudy with Light Rain 41 5 39 4 93 93 WNW 13 20 29.77 1008 1.5 2.41401 0 0.0254
6:56 am 06:56 Cloudy with Mist and Fog 41 5 40 4.4 96 96 NW 9 15 29.77 1008 1.75 2.816345 0 0.0254
7:09 am 07:09 Cloudy with Mist and Fog 39 4 39 4 100 100 WNW 16 26 29.77 1008 2.5 4.02335 0 0
7:16 am 07:16 Cloudy with Mist and Fog 39 4 39 4 100 100 WNW 13 20 29.8 1009 4 6.43736 0 0
7:56 am 07:56 Cloudy with Mist and Fog 40 4.4 40 4.4 100 100 WNW 13 20 29.79 1009 5 8.0467 0 0
8:34 am 08:34 Cloudy with Mist and Fog 39 4 39 4 100 100 WNW 12 19 29.8 1009 2.5 4.02335 0 0
8:43 am 08:43 Cloudy with Light Rain 39 4 39 4 100 100 WNW 13 20 29.8 1009 1 1.60934 0 0.0254
8:51 am 08:51 Cloudy with Mist and Fog 39 4 39 4 100 100 WNW 13 20 29.83 1010 0.75 1.207005 0 0.0254
8:56 am 08:56 Cloudy with Mist and Fog 40 4.4 39 3.9 97 97 WNW 13 20 29.81 1010 1 1.60934 0 0.0254
9:07 am 09:07 Cloudy with Mist and Fog 39 4 39 4 100 100 WNW 16 26 29.83 1010 2 3.21868 0 0
9:16 am 09:16 Cloudy with Mist and Fog 39 4 39 4 100 100 WNW 13 20 29.83 1010 6 9.65604 0 0
9:38 am 09:38 Cloudy 39 4 39 4 100 100 WNW 15 24 29.83 1010 7 11.26538 0 0
9:56 am 09:56 Cloudy with Mist and Fog 40 4.4 39 3.9 97 97 WNW 14 22 29.83 1010 2.5 4.02335 0 0
10:06 am 10:06 Cloudy with Mist and Fog 39 4 39 4 100 100 WNW 12 19 29.83 1010 2 3.21868 0 0
10:33 am 10:33 Cloudy with Mist and Fog 39 4 39 4 100 100 WNW 16 26 29.85 1011 3 4.82802 0 0.0254
10:56 am 10:56 Cloudy with Mist and Fog 40 4.4 39 3.9 97 97 WNW 13 20 29.85 1011 6 9.65604 0 0.0254
11:56 am 11:56 Cloudy with Mist and Fog 40 4.4 38 3.3 93 93 NW 12 19 29.85 1011 6 9.65604 0 0
12:56 pm 12:56 Cloudy with Mist and Fog 40 4.4 38 3.3 93 93 WNW 14 22 29.83 1010 5 8.0467 0 0
1:06 pm 13:06 Cloudy with Mist and Fog 39 4 37 3 93 93 WNW 12 19 29.83 1010 6 9.65604 0 0
1:56 pm 13:56 Cloudy 41 5 38 3.3 89 89 WNW 10 17 29.81 1010 10 16.0934 0 0
2:56 pm 14:56 Cloudy 41 5 38 3.3 89 89 WNW 13 20 29.83 1010 10 16.0934 0 0
3:28 pm 15:28 Cloudy 41 5 37 3 87 87 W 15 24 29.83 1010 10 16.0934 0 0
3:56 pm 15:56 Cloudy 41 5 36 2.2 82 82 W 15 24 29.83 1010 10 16.0934 0 0
4:56 pm 16:56 Cloudy 40 4.4 36 2.2 86 86 WNW 8 13 29.85 1011 10 16.0934 0 0
5:56 pm 17:56 Cloudy 39 3.9 34 1.1 82 82 NW 10 17 29.87 1012 10 16.0934 0 0
6:56 pm 18:56 Cloudy 39 3.9 34 1.1 82 82 W 7 11 29.88 1012 10 16.0934 0 0
7:56 pm 19:56 Cloudy 39 3.9 34 1.1 82 82 WSW 7 11 29.88 1012 10 16.0934 0 0
8:56 pm 20:56 Cloudy 38 3.3 34 1.1 86 86 SW 5 7 29.87 1011 10 16.0934 0 0
9:56 pm 21:56 Cloudy 38 3.3 34 1.1 86 86 Calm 29.86 1011 10 16.0934 0 0
10:56 pm 22:56 Cloudy 38 3.3 34 1.1 86 86 S 6 9 29.87 1012 10 16.0934 0 0
11:56 pm 23:56 Cloudy 38 3.3 34 1.1 86 86 Calm 29.87 1012 10 16.0934 0 0

Powered by AerisWeather